Stations météo

réclame
Mon MeteoGroup
Gourette, France (7775): Température de l'air & dewpoint: 16.03.2019 07:00:00 - 22.03.2019 07:00:00 (CET)Gourette, France (7775): Vitesse du vent & gusts: 16.03.2019 07:00:00 - 22.03.2019 07:00:00 (CET)Gourette, France (7775): Direction du vent: 16.03.2019 07:00:00 - 22.03.2019 07:00:00 (CET)Gourette, France (7775): reduced air pressure: 16.03.2019 07:00:00 - 22.03.2019 07:00:00 (CET)Gourette, France (7775): visibility: 16.03.2019 07:00:00 - 22.03.2019 07:00:00 (CET)Gourette, France (7775): Quantités de précipitations: 16.03.2019 07:00:00 - 22.03.2019 07:00:00 (CET)
Date & Time tt [°C] td [°C] ff [km/h] ff [knt] fx [km/h] fx [knt] dd ppp [hPa] vv [km] rr [mm]
22.03.2019 07:00:00 11,0 1,2 13 7 27 15 N 1026,4 - 0,0
22.03.2019 06:00:00 10,8 1,9 23 12 37 20 NNW 1025,9 - 0,0
22.03.2019 05:00:00 10,3 3,3 20 11 29 16 N 1026,2 - 0,0
22.03.2019 04:00:00 11,1 4,3 20 11 41 22 N 1025,9 - 0,0
22.03.2019 03:00:00 11,9 3,9 28 15 42 23 N 1025,9 - 0,0
22.03.2019 02:00:00 11,9 3,1 24 13 44 24 N 1025,7 - 0,0
22.03.2019 01:00:00 12,1 3,6 27 15 41 22 N 1025,8 - 0,0
22.03.2019 00:00:00 12,5 1,5 18 10 28 15 N 1025,9 - 0,0
21.03.2019 23:00:00 13,6 1,2 21 11 32 17 NNW 1025,9 - 0,0
21.03.2019 22:00:00 13,7 1,0 21 11 35 19 N 1025,8 - 0,0
21.03.2019 21:00:00 14,5 1,4 21 12 34 19 NNW 1025,7 - 0,0
21.03.2019 20:00:00 14,4 1,3 21 11 32 18 NNW 1025,6 - 0,0
21.03.2019 19:00:00 14,6 1,8 22 12 32 17 NNW 1025,2 20 0,0
21.03.2019 18:00:00 15,8 1,5 21 12 39 21 NNW 1024,9 - 0,0
21.03.2019 17:00:00 16,1 3,8 29 16 50 27 N 1024,9 - 0,0
21.03.2019 16:00:00 16,5 4,2 32 18 59 32 N 1024,9 20 0,0
21.03.2019 15:00:00 16,5 4,8 38 20 58 31 N 1025,1 - 0,0
21.03.2019 14:00:00 16,5 4,8 44 24 63 34 NNE 1025,4 - 0,0
21.03.2019 13:00:00 16,5 4,5 46 25 64 34 NNE 1026,1 20 0,0
21.03.2019 12:00:00 16,3 5,0 44 24 65 35 NNE 1026,5 - 0,0
21.03.2019 11:00:00 15,4 4,7 46 25 64 35 N 1026,7 - 0,0
21.03.2019 10:00:00 14,3 4,3 43 23 61 33 N 1026,7 - 0,0
21.03.2019 09:00:00 12,8 3,4 30 16 58 31 N 1027,0 - 0,0
21.03.2019 08:00:00 11,2 2,5 32 17 53 29 N 1026,4 - 0,0
21.03.2019 07:00:00 9,5 1,6 24 13 43 23 NNW 1026,3 20 0,0
21.03.2019 06:00:00 8,9 0,8 21 11 45 24 N 1026,0 - 0,0
21.03.2019 05:00:00 9,4 0,8 27 15 51 28 N 1026,0 - 0,0
21.03.2019 04:00:00 9,2 -0,2 27 14 49 26 N 1026,0 18 0,0
21.03.2019 03:00:00 9,2 -0,4 24 13 46 25 N 1025,9 - 0,0
21.03.2019 02:00:00 9,0 -0,6 24 13 37 20 N 1026,5 - 0,0
21.03.2019 01:00:00 8,9 -0,2 24 13 40 22 N 1027,0 - 0,0
21.03.2019 00:00:00 9,3 -0,1 23 12 36 19 N 1027,0 - 0,0
20.03.2019 23:00:00 10,4 0,1 24 13 41 22 NNW 1027,4 - 0,0
20.03.2019 22:00:00 10,9 1,1 22 12 47 25 NNW 1027,1 - 0,0
20.03.2019 21:00:00 11,5 1,4 26 14 41 22 NNW 1026,7 - 0,0
20.03.2019 20:00:00 11,3 2,3 21 11 37 20 N 1026,4 - 0,0
20.03.2019 19:00:00 11,8 2,5 24 13 41 22 N 1025,6 20 0,0
20.03.2019 18:00:00 12,8 2,9 29 16 49 27 N 1025,3 - 0,0
20.03.2019 17:00:00 14,7 3,5 31 17 54 29 N 1024,6 - 0,0
20.03.2019 16:00:00 15,7 3,5 34 18 54 29 N 1024,6 - 0,0
20.03.2019 15:00:00 16,2 3,6 33 18 57 31 N 1024,8 - 0,0
20.03.2019 14:00:00 15,7 2,8 37 20 55 30 NNE 1024,9 - 0,0
20.03.2019 13:00:00 15,7 3,8 36 20 57 31 NNE 1025,5 25 0,0
20.03.2019 12:00:00 15,5 3,9 36 20 53 29 NNE 1025,7 - 0,0
20.03.2019 11:00:00 14,8 3,6 38 20 54 29 NNE 1025,5 - 0,0
20.03.2019 10:00:00 14,0 4,6 31 17 52 28 N 1025,4 25 0,0
20.03.2019 09:00:00 12,8 3,7 37 20 50 27 N 1025,1 - 0,0
20.03.2019 08:00:00 11,2 3,5 27 14 41 22 N 1024,6 - 0,0
20.03.2019 07:00:00 8,7 2,5 25 14 41 22 N 1024,2 20 0,0
20.03.2019 06:00:00 8,2 2,0 20 11 37 20 N 1023,6 - 0,0
20.03.2019 05:00:00 8,7 1,8 25 13 41 22 N 1023,2 - 0,0
20.03.2019 04:00:00 8,9 1,5 23 12 45 25 N 1023,0 - 0,0
20.03.2019 03:00:00 8,8 1,9 24 13 53 28 N 1023,0 - 0,0
20.03.2019 02:00:00 9,5 1,4 31 17 53 28 N 1023,2 - 0,0
20.03.2019 01:00:00 9,1 0,5 25 13 45 24 N 1023,0 - 0,0
20.03.2019 00:00:00 9,0 2,1 19 11 34 19 N 1022,9 - 0,0
19.03.2019 23:00:00 9,3 2,8 21 11 38 21 N 1022,9 - 0,0
19.03.2019 22:00:00 9,9 2,7 22 12 43 23 N 1022,9 - 0,0
19.03.2019 21:00:00 10,3 3,1 27 15 43 23 N 1022,2 - 0,0
19.03.2019 20:00:00 10,2 3,0 23 13 40 22 N 1021,9 - 0,0
19.03.2019 19:00:00 10,4 2,7 25 13 43 23 NNW 1021,2 - 0,0
19.03.2019 18:00:00 11,4 2,7 26 14 59 32 N 1020,4 - 0,0
19.03.2019 17:00:00 13,5 3,8 32 17 56 30 N 1019,6 - 0,0
19.03.2019 16:00:00 14,0 4,0 39 21 59 32 N 1019,2 - 0,0
19.03.2019 15:00:00 14,2 3,9 41 22 59 32 N 1019,2 - 0,0
19.03.2019 14:00:00 14,8 4,8 41 22 59 32 NNE 1019,1 - 0,0
19.03.2019 13:00:00 15,6 6,0 37 20 52 28 NNE 1019,4 - 0,0
19.03.2019 12:00:00 15,1 5,9 35 19 48 26 N 1019,6 - 0,0
19.03.2019 11:00:00 14,3 6,4 33 18 49 27 NNE 1019,4 - 0,0
19.03.2019 10:00:00 13,1 5,7 27 15 49 26 N 1019,1 15 0,0
19.03.2019 09:00:00 13,2 6,3 31 17 44 24 NNE 1018,5 - 0,0
19.03.2019 08:00:00 10,0 6,5 14 8 28 15 N 1018,3 - 0,0
19.03.2019 07:00:00 9,2 6,5 16 9 31 17 NW 1017,7 15 0,2
19.03.2019 06:00:00 9,7 4,5 22 12 34 18 N 1017,1 - 0,0
19.03.2019 05:00:00 9,3 3,3 20 11 35 19 N 1016,6 - 0,0
19.03.2019 04:00:00 10,3 1,9 19 10 51 28 N 1016,1 - 0,0
19.03.2019 03:00:00 10,8 1,9 30 16 49 26 NW 1016,0 - 0,0
19.03.2019 02:00:00 9,5 1,1 16 9 28 15 NNW 1016,0 - 0,0
19.03.2019 01:00:00 10,2 3,0 18 10 33 18 NNW 1016,1 - 0,0
19.03.2019 00:00:00 10,3 4,2 23 13 48 26 NNW 1016,1 - 0,0
18.03.2019 23:00:00 9,5 2,1 25 14 36 20 N 1016,1 - 0,0
18.03.2019 22:00:00 11,7 -2,2 10 5 19 11 NNW 1015,8 - 0,0
18.03.2019 21:00:00 11,9 -2,7 9 5 16 9 NW 1015,0 - 0,0
18.03.2019 20:00:00 12,5 0,6 15 8 23 12 NNW 1014,5 - 0,0
18.03.2019 19:00:00 11,1 5,8 10 5 27 14 W 1014,0 18 0,0
18.03.2019 18:00:00 10,9 6,8 19 10 44 24 WSW 1013,4 - 0,0
18.03.2019 17:00:00 11,1 7,4 17 9 49 27 SSW 1013,1 - 1,6
18.03.2019 16:00:00 14,4 4,1 7 4 29 16 NW 1012,8 - 0,0
18.03.2019 15:00:00 14,7 8,4 22 12 33 18 S 1012,3 - 0,0
18.03.2019 14:00:00 15,2 7,7 15 8 28 15 S 1012,2 - 0,0
18.03.2019 13:00:00 17,2 8,3 14 7 29 16 SE 1012,2 18 0,0
18.03.2019 12:00:00 17,2 8,3 20 11 28 15 ENE 1012,0 - 0,0
18.03.2019 11:00:00 19,0 8,9 7 4 21 11 ENE 1012,0 - 0,0
18.03.2019 10:00:00 18,8 10,6 14 7 27 15 NNE 1011,8 12 0,0
18.03.2019 09:00:00 16,3 10,2 16 9 26 14 N 1011,4 - 0,0
18.03.2019 08:00:00 13,7 9,5 16 9 24 13 N 1011,2 - 0,0
18.03.2019 07:00:00 11,1 9,2 18 10 23 12 NNW 1010,9 - 0,0
18.03.2019 06:00:00 11,0 8,6 16 9 19 11 NNW 1010,6 - 0,0
18.03.2019 05:00:00 10,7 8,5 13 7 20 11 NNW 1010,7 - 0,0
18.03.2019 04:00:00 10,7 8,8 18 10 26 14 NNW 1010,9 - 0,0
18.03.2019 03:00:00 10,2 8,0 19 10 29 16 NNW 1011,2 - 0,0
18.03.2019 02:00:00 10,1 8,9 19 10 29 15 N 1011,6 - 0,0
18.03.2019 01:00:00 10,7 8,3 19 11 28 15 N 1012,0 - 0,0
18.03.2019 00:00:00 11,5 9,6 16 9 19 11 NNW 1012,4 - 0,0
17.03.2019 23:00:00 12,6 11,3 8 4 17 9 S 1012,6 - 0,0
17.03.2019 22:00:00 12,9 11,3 14 8 30 16 S 1012,9 - 0,0
17.03.2019 21:00:00 12,8 11,0 21 12 29 16 S 1013,0 - 0,0
17.03.2019 20:00:00 13,1 10,8 20 11 29 16 S 1013,4 - 0,0
17.03.2019 19:00:00 13,3 10,7 15 8 31 17 S 1014,1 25 0,0
17.03.2019 18:00:00 13,6 10,6 21 12 36 19 S 1014,1 - 0,0
17.03.2019 17:00:00 14,1 10,1 23 12 36 20 S 1014,2 - 0,0
17.03.2019 16:00:00 14,0 10,0 25 14 40 22 SSE 1014,6 25 0,0
17.03.2019 15:00:00 15,1 9,7 24 13 37 20 SSE 1014,9 - 0,0
17.03.2019 14:00:00 16,2 9,4 18 10 33 18 SE 1015,4 - 0,0
17.03.2019 13:00:00 16,3 10,4 21 12 34 18 SE 1016,0 20 0,0
17.03.2019 12:00:00 15,4 10,0 22 12 37 20 SSE 1016,7 - 0,0
17.03.2019 11:00:00 16,5 9,4 17 9 33 18 S 1017,0 - 0,0
17.03.2019 10:00:00 15,1 8,6 16 9 28 15 S 1017,5 15 0,0
17.03.2019 09:00:00 14,2 8,6 13 7 18 10 SSW 1017,8 - 0,0
17.03.2019 08:00:00 12,4 9,6 10 6 16 9 SW 1017,7 - 0,0
17.03.2019 07:00:00 12,0 9,0 5 3 10 5 SW 1017,3 - 0,0
17.03.2019 06:00:00 12,6 8,3 8 4 15 8 NW 1017,3 - 0,0
17.03.2019 05:00:00 12,2 8,7 11 6 15 8 NW 1017,4 - 0,0
17.03.2019 04:00:00 12,4 9,0 11 6 14 8 WNW 1017,3 - 0,0
17.03.2019 03:00:00 12,6 9,2 9 5 14 7 W 1017,8 - 0,0
17.03.2019 02:00:00 12,9 9,3 6 3 12 6 W 1018,2 - 0,0
17.03.2019 01:00:00 12,9 9,2 5 3 13 7 W 1018,5 - 0,0
17.03.2019 00:00:00 13,0 9,3 3 1 12 6 NE 1018,8 - 0,0
16.03.2019 23:00:00 12,9 9,5 5 3 13 7 W 1018,9 - 0,0
16.03.2019 22:00:00 13,1 9,9 6 3 11 6 NNW 1018,9 - 0,0
16.03.2019 21:00:00 13,1 10,1 5 3 13 7 N 1018,7 - 0,0
16.03.2019 20:00:00 13,0 10,5 8 4 18 10 N 1018,3 - 0,0
16.03.2019 19:00:00 13,5 11,2 8 4 14 8 NNE 1018,1 - 0,0
16.03.2019 18:00:00 13,8 10,6 12 6 19 10 NNE 1017,5 - 0,0
16.03.2019 17:00:00 16,3 10,8 14 8 29 16 NE 1017,0 - 0,0
16.03.2019 16:00:00 17,6 10,0 19 10 32 18 NE 1016,6 - 0,0
16.03.2019 15:00:00 18,4 11,0 19 11 31 17 NNE 1016,8 - 0,0
16.03.2019 14:00:00 17,4 11,4 20 11 36 19 NNE 1017,1 6 0,0
16.03.2019 13:00:00 19,3 12,3 23 12 36 19 NNE 1017,4 - 0,0
16.03.2019 12:00:00 18,0 11,1 25 13 35 19 NE 1017,7 - 0,0
16.03.2019 11:00:00 16,6 10,0 14 7 23 12 NE 1017,7 - 0,0
16.03.2019 10:00:00 15,2 10,4 13 7 20 11 NE 1017,5 6 0,0
16.03.2019 09:00:00 13,8 10,2 9 5 16 9 N 1017,3 - 0,0
16.03.2019 08:00:00 12,2 9,4 11 6 19 10 NNW 1016,9 - 0,0
16.03.2019 07:00:00 10,7 9,3 15 8 20 11 NNW 1016,9 - 0,0

tt = Température de l'air
td = dewpoint
ff = Vitesse du vent
fx = gusts
dd = Direction du vent
ppp = reduced air pressure
vv = visibility
rr = Quantités de précipitations

stations d'obs. à proximité